This is the latest recevied weather packets stored in our database for station/object G0TRT-13. If no packets are shown the sender has not sent any weather packets the latest 10 day(s).
| Time | Temp. | Humidity | Pressure | Rain* | Wind** | Luminosity | Snow |
|---|---|---|---|---|---|---|---|
| 1777993105 | 17.22° C | 53% | 1012.2 hPa | 0 mm | - | - | - |
| 1777992801 | 16.67° C | 55% | 1012.2 hPa | 0 mm | - | - | - |
| 1777992499 | 16.67° C | 54% | 1012.2 hPa | 0 mm | - | - | - |
| 1777992198 | 17.22° C | 53% | 1012.3 hPa | 0 mm | - | - | - |
| 1777991897 | 17.78° C | 53% | 1012.3 hPa | 0 mm | - | - | - |
| 1777991597 | 17.22° C | 55% | 1012.2 hPa | 0 mm | - | - | - |
| 1777991296 | 16.67° C | 56% | 1012.3 hPa | 0 mm | - | - | - |
| 1777990993 | 16.67° C | 54% | 1012.3 hPa | 0 mm | - | - | - |
| 1777990691 | 16.67° C | 55% | 1012.5 hPa | 0 mm | - | - | - |
| 1777990389 | 17.22° C | 54% | 1012.4 hPa | 0 mm | - | - | - |
| 1777989787 | 17.22° C | 57% | 1012.4 hPa | 0 mm | - | - | - |
| 1777989487 | 16.67° C | 57% | 1012.4 hPa | 0 mm | - | - | - |
| 1777989184 | 16.67° C | 59% | 1012.6 hPa | 0 mm | - | - | - |
| 1777988886 | 16.11° C | 57% | 1012.5 hPa | 0 mm | - | - | - |
| 1777988589 | 16.67° C | 56% | 1012.6 hPa | 0 mm | - | - | - |
| 1777988281 | 16.67° C | 58% | 1012.5 hPa | 0 mm | - | - | - |
| 1777987975 | 16.11° C | 60% | 1012.6 hPa | 0 mm | - | - | - |
| 1777987669 | 16.11° C | 59% | 1012.6 hPa | 0 mm | - | - | - |
| 1777987363 | 16.67° C | 60% | 1012.7 hPa | 0 mm | - | - | - |
| 1777987059 | 16.67° C | 56% | 1012.6 hPa | 0 mm | - | - | - |
| 1777986759 | 17.22° C | 55% | 1012.8 hPa | 0 mm | - | - | - |
| 1777986455 | 17.22° C | 55% | 1012.8 hPa | 0 mm | - | - | - |
| 1777986155 | 17.22° C | 57% | 1012.8 hPa | 0 mm | - | - | - |
| 1777985853 | 16.67° C | 57% | 1012.8 hPa | 0 mm | - | - | - |
| 1777985551 | 16.67° C | 59% | 1012.8 hPa | 0 mm | - | - | - |
* Rain latest hour (hover to see other rain measurements)
** Current wind speed in m/s (hover to see current wind gust speed)